Weather History for Claxton, GA

Change the Weather History Date:

Friday, October 5, 2012

  Actual Average (KSAV) Record (KSAV)
Temperature  
Mean Temperature 76 °F 71 °F  
Max Temperature 84 °F 81 °F 96 °F (1986)
Min Temperature 68 °F 62 °F 43 °F (1987)
Degree Days  
Heating Degree Days 0 1  
Month to date heating degree days 3  
Since 1 July heating degree days 5  
Cooling Degree Days 11 7  
Month to date cooling degree days 38  
Year to date cooling degree days 2304  
Growing Degree Days 26 (Base 50)    
Moisture  
Dew Point 69 °F    
Average Humidity 86    
Maximum Humidity 100    
Minimum Humidity 51    
Precipitation  
Precipitation 0.00 in 0.15 in 3.14 in (2005)
Month to date precipitation 0.79  
Year to date precipitation 39.74  
Sea Level Pressure  
Sea Level Pressure 30.11 in    
Wind  
Wind Speed 1 mph (ENE)    
Max Wind Speed 7 mph    
Max Gust Speed -    
Visibility 8 miles    
Events      
T = Trace of Precipitation, MM = Missing Value Source: NWS Daily Summary

Daily Weather History Graph

Daily Weather History Graph

Search for Another Location

Airport:

Trip Planner

Search our weather history database for the weather conditions in past years. The results will help you decide how hot, cold, wet, or windy it might be!

Date:

Astronomy

Oct. 05, 2012 Rise Set
Actual Time 7:24 AM EDT 7:06 PM EDT
Civil Twilight 6:59 AM EDT 7:30 PM EDT
Nautical Twilight 6:31 AM EDT 7:59 PM EDT
Astronomical Twilight 6:03 AM EDT 8:27 PM EDT
Moon 10:44 PM EDT (10/5) 12:15 PM EDT (10/5)
Length of Visible Light 12h 31m
Length of Day
11h 42m
Waning Gibbous, 74% of the Moon is Illuminated
Oct 5
Waning Gibbous
Oct 8
Last Quarter
Oct 15
New
Oct 21
First Quarter
Oct 29
Full

Hourly Weather History & Observations

Time (EDT) Temp. Heat Index Dew Point Humidity Pressure Visibility Wind Dir Wind Speed Gust Speed Precip Events Conditions
12:15 AM 69.8 °F - 69.8 °F 100% 30.19 in 5.0 mi Calm Calm - N/A   Clear
12:55 AM 69.8 °F - 69.8 °F 100% 30.19 in 5.0 mi Calm Calm - N/A   Clear
1:15 AM 69.8 °F - 69.8 °F 100% 30.18 in 7.0 mi Calm Calm - N/A   Clear
1:35 AM 69.8 °F - 69.8 °F 100% 30.17 in 7.0 mi Calm Calm - N/A   Clear
1:55 AM 69.8 °F - 69.8 °F 100% 30.17 in 5.0 mi Calm Calm - N/A   Clear
2:15 AM 69.8 °F - 69.8 °F 100% 30.16 in 7.0 mi Calm Calm - N/A   Clear
2:35 AM 69.8 °F - 69.8 °F 100% 30.16 in 7.0 mi Calm Calm - N/A   Clear
2:55 AM 69.8 °F - 69.8 °F 100% 30.15 in 5.0 mi Calm Calm - N/A   Clear
3:15 AM 69.8 °F - 69.8 °F 100% 30.15 in 5.0 mi Calm Calm - N/A   Clear
3:35 AM 68.0 °F - 68.0 °F 100% 30.15 in 5.0 mi Calm Calm - N/A   Clear
3:55 AM 68.0 °F - 68.0 °F 100% 30.15 in 5.0 mi Calm Calm - N/A   Clear
4:15 AM 68.0 °F - 68.0 °F 100% 30.15 in 5.0 mi Calm Calm - N/A   Clear
4:35 AM 68.0 °F - 68.0 °F 100% 30.14 in 5.0 mi Calm Calm - N/A   Clear
4:55 AM 68.0 °F - 68.0 °F 100% 30.15 in 5.0 mi Calm Calm - N/A   Clear
5:15 AM 68.0 °F - 68.0 °F 100% 30.15 in 7.0 mi Calm Calm - N/A   Clear
5:35 AM 68.0 °F - 68.0 °F 100% 30.15 in 5.0 mi Calm Calm - N/A   Scattered Clouds
5:55 AM 68.0 °F - 68.0 °F 100% 30.15 in 7.0 mi Calm Calm - N/A   Scattered Clouds
6:15 AM 68.0 °F - 68.0 °F 100% 30.15 in 5.0 mi Calm Calm - N/A   Scattered Clouds
6:35 AM 68.0 °F - 68.0 °F 100% 30.16 in 5.0 mi Calm Calm - N/A   Scattered Clouds
6:55 AM 68.0 °F - 68.0 °F 100% 30.16 in 7.0 mi Calm Calm - N/A   Scattered Clouds
7:15 AM 68.0 °F - 68.0 °F 100% 30.16 in 7.0 mi Calm Calm - N/A   Scattered Clouds
7:35 AM 68.0 °F - 68.0 °F 100% 30.15 in 5.0 mi Calm Calm - N/A   Clear
7:55 AM 68.0 °F - 68.0 °F 100% 30.16 in 5.0 mi Calm Calm - N/A   Clear
8:15 AM 69.8 °F - 69.8 °F 100% 30.16 in 5.0 mi Calm Calm - N/A   Scattered Clouds
8:35 AM 69.8 °F - 69.8 °F 100% 30.15 in 7.0 mi Calm Calm - N/A   Scattered Clouds
8:55 AM 71.6 °F - 71.6 °F 100% 30.16 in 7.0 mi Calm Calm - N/A   Clear
9:15 AM 71.6 °F - 71.6 °F 100% 30.16 in 10.0 mi Calm Calm - N/A   Clear
9:35 AM 73.4 °F - 73.4 °F 100% 30.16 in 10.0 mi Calm Calm - N/A   Clear
9:55 AM 75.2 °F - 73.4 °F 94% 30.16 in 10.0 mi Calm Calm - N/A   Scattered Clouds
10:15 AM 77.0 °F - 73.4 °F 89% 30.16 in 10.0 mi NNE 3.5 mph - N/A   Scattered Clouds
10:35 AM 78.8 °F - 71.6 °F 78% 30.16 in 10.0 mi ENE 5.8 mph - N/A   Clear
10:55 AM 78.8 °F - 69.8 °F 74% 30.15 in 10.0 mi ENE 4.6 mph - N/A   Mostly Cloudy
11:15 AM 78.8 °F - 69.8 °F 74% 30.15 in 10.0 mi NNE 3.5 mph - N/A   Overcast
11:35 AM 82.4 °F 85.4 °F 68.0 °F 62% 30.15 in 10.0 mi East 6.9 mph - N/A   Mostly Cloudy
11:55 AM 80.6 °F 83.2 °F 68.0 °F 65% 30.15 in 10.0 mi East 5.8 mph - N/A   Overcast
12:35 PM 80.6 °F 83.2 °F 68.0 °F 65% 30.14 in 10.0 mi ESE 4.6 mph - N/A   Overcast
12:55 PM 82.4 °F 85.4 °F 68.0 °F 62% 30.13 in 10.0 mi East 6.9 mph - N/A   Scattered Clouds
1:15 PM 82.4 °F 84.6 °F 66.2 °F 58% 30.12 in 10.0 mi ENE 4.6 mph - N/A   Scattered Clouds
1:35 PM 84.2 °F 87.3 °F 68.0 °F 58% 30.11 in 10.0 mi NE 5.8 mph - N/A   Mostly Cloudy
1:55 PM 84.2 °F 85.6 °F 64.4 °F 51% 30.10 in 10.0 mi Calm Calm - N/A   Mostly Cloudy
2:15 PM 84.2 °F 87.3 °F 68.0 °F 58% 30.10 in 10.0 mi ESE 3.5 mph - N/A   Mostly Cloudy
2:35 PM 84.2 °F 87.3 °F 68.0 °F 58% 30.09 in 10.0 mi NE 3.5 mph - N/A   Overcast
2:55 PM 82.4 °F 85.4 °F 68.0 °F 62% 30.08 in 10.0 mi Calm Calm - N/A   Overcast
3:15 PM 82.4 °F 85.4 °F 68.0 °F 62% 30.08 in 10.0 mi ENE 4.6 mph - N/A   Mostly Cloudy
3:35 PM 84.2 °F 87.3 °F 68.0 °F 58% 30.07 in 10.0 mi ENE 3.5 mph - N/A   Scattered Clouds
3:55 PM 82.4 °F 85.4 °F 68.0 °F 62% 30.06 in 10.0 mi Calm Calm - N/A   Scattered Clouds
4:15 PM 82.4 °F 85.4 °F 68.0 °F 62% 30.05 in 10.0 mi Calm Calm - N/A   Mostly Cloudy
4:35 PM 82.4 °F 85.4 °F 68.0 °F 62% 30.04 in 10.0 mi Calm Calm - N/A   Scattered Clouds
4:55 PM 82.4 °F 85.4 °F 68.0 °F 62% 30.04 in 10.0 mi Calm Calm - N/A   Scattered Clouds
5:15 PM 82.4 °F 85.4 °F 68.0 °F 62% 30.03 in 10.0 mi Calm Calm - N/A   Scattered Clouds
5:35 PM 80.6 °F 83.9 °F 69.8 °F 70% 30.04 in 10.0 mi Calm Calm - N/A   Clear
5:55 PM 82.4 °F 86.3 °F 69.8 °F 66% 30.04 in 10.0 mi NE 5.8 mph - N/A   Clear
6:15 PM 82.4 °F 85.4 °F 68.0 °F 62% 30.03 in 10.0 mi East 3.5 mph - N/A   Clear
6:35 PM 78.8 °F - 69.8 °F 74% 30.03 in 10.0 mi Calm Calm - N/A   Clear
6:55 PM 77.0 °F - 69.8 °F 78% 30.03 in 10.0 mi Calm Calm - N/A   Clear
7:15 PM 75.2 °F - 69.8 °F 83% 30.02 in 10.0 mi Calm Calm - N/A   Clear
7:35 PM 73.4 °F - 71.6 °F 94% 30.03 in 10.0 mi Calm Calm - N/A   Clear
7:55 PM 73.4 °F - 71.6 °F 94% 30.04 in 10.0 mi Calm Calm - N/A   Clear
8:15 PM 73.4 °F - 71.6 °F 94% 30.04 in 10.0 mi Calm Calm - N/A   Clear
8:35 PM 71.6 °F - 71.6 °F 100% 30.05 in 10.0 mi Calm Calm - N/A   Clear
8:55 PM 71.6 °F - 71.6 °F 100% 30.05 in 10.0 mi Calm Calm - N/A   Clear
9:15 PM 71.6 °F - 71.6 °F 100% 30.05 in 10.0 mi Calm Calm - N/A   Clear
9:35 PM 73.4 °F - 69.8 °F 88% 30.05 in 10.0 mi Calm Calm - N/A   Clear
9:55 PM 71.6 °F - 71.6 °F 100% 30.05 in 10.0 mi Calm Calm - N/A   Clear
10:15 PM 71.6 °F - 71.6 °F 100% 30.05 in 10.0 mi Calm Calm - N/A   Clear
10:35 PM 71.6 °F - 71.6 °F 100% 30.05 in 10.0 mi Calm Calm - N/A   Clear
10:55 PM 69.8 °F - 69.8 °F 100% 30.05 in 10.0 mi Calm Calm - N/A   Clear
11:15 PM 69.8 °F - 69.8 °F 100% 30.05 in 7.0 mi Calm Calm - N/A   Clear
11:35 PM 69.8 °F - 69.8 °F 100% 30.04 in 7.0 mi Calm Calm - N/A   Clear
11:55 PM 69.8 °F - 69.8 °F 100% 30.04 in 7.0 mi Calm Calm - N/A   Clear